Weather History for El Centro, CA

Change the Weather History Date:

Sunday, February 17, 2013

  Actual Average Record
Temperature  
Mean Temperature 62 °F -  
Max Temperature 82 °F 69 °F 87 °F (2014)
Min Temperature 42 °F 47 °F 41 °F (2008)
Degree Days  
Heating Degree Days 3    
Growing Degree Days 12 (Base 50)    
Moisture  
Dew Point 20 °F    
Average Humidity 22    
Maximum Humidity 40    
Minimum Humidity 7    
Precipitation  
Precipitation 0.00 in - - ()
Sea Level Pressure  
Sea Level Pressure 29.92 in    
Wind  
Wind Speed 9 mph (WSW)    
Max Wind Speed 21 mph    
Max Gust Speed 29 mph    
Visibility 10 miles    
Events      
Averages and records for this station are not official NWS values.
T = Trace of Precipitation, MM = Missing Value Source: NWS Daily Summary

Daily Weather History Graph

Daily Weather History Graph

Search for Another Location

Airport:

Trip Planner

Search our weather history database for the weather conditions in past years. The results will help you decide how hot, cold, wet, or windy it might be!

Date:

Astronomy

Feb. 17, 2013 Rise Set
Actual Time 6:23 AM PST 5:30 PM PST
Civil Twilight 5:58 AM PST 5:55 PM PST
Nautical Twilight 5:29 AM PST 6:24 PM PST
Astronomical Twilight 5:00 AM PST 6:52 PM PST
Moon 10:45 AM PST (2/17) 12:04 AM PST (2/17)
Length of Visible Light 11h 56m
Length of Day
11h 06m
Waxing Crescent, 50% of the Moon is Illuminated
Feb 17
Waxing Crescent
Feb 17
First Quarter
Feb 25
Full
Mar 4
Last Quarter
Mar 11
New

Hourly Weather History & Observations

Time (PST) Temp. Windchill Dew Point Humidity Pressure Visibility Wind Dir Wind Speed Gust Speed Precip Events Conditions
12:56 AM 51.1 °F - 17.1 °F 26% 29.98 in 10.0 mi West 8.1 mph - N/A   Clear
1:56 AM 45.0 °F 41.2 °F 16.0 °F 31% 29.96 in 10.0 mi WNW 6.9 mph - N/A   Clear
2:56 AM 48.9 °F - 16.0 °F 27% 29.94 in 10.0 mi SW 5.8 mph - N/A   Clear
3:56 AM 43.0 °F 40.3 °F 19.9 °F 40% 29.93 in 10.0 mi West 4.6 mph - N/A   Clear
4:56 AM 46.0 °F 43.1 °F 19.0 °F 34% 29.94 in 10.0 mi SW 5.8 mph - N/A   Clear
5:56 AM 42.1 °F 38.4 °F 19.0 °F 40% 29.94 in 10.0 mi West 5.8 mph - N/A   Clear
6:56 AM 44.1 °F 39.5 °F 19.0 °F 37% 29.95 in 10.0 mi West 8.1 mph - N/A   Clear
7:56 AM 61.0 °F - 25.0 °F 25% 29.96 in 10.0 mi SW 9.2 mph - N/A   Clear
8:56 AM 69.1 °F - 21.0 °F 16% 29.96 in 10.0 mi WSW 8.1 mph - N/A   Clear
9:56 AM 73.0 °F - 15.1 °F 11% 29.95 in 10.0 mi West 6.9 mph - N/A   Clear
10:56 AM 77.0 °F - 15.1 °F 10% 29.94 in 10.0 mi West 4.6 mph - N/A   Clear
11:56 AM 80.1 °F - 15.1 °F 9% 29.90 in 10.0 mi West 9.2 mph - N/A   Clear
12:56 PM 81.0 °F - 12.0 °F 7% 29.87 in 10.0 mi SW 10.4 mph - N/A   Clear
1:56 PM 82.0 °F - 12.0 °F 7% 29.85 in 10.0 mi WSW 10.4 mph - N/A   Clear
2:56 PM 82.0 °F - 16.0 °F 8% 29.86 in 10.0 mi SW 17.3 mph 27.6 mph N/A   Clear
3:56 PM 78.1 °F - 24.1 °F 14% 29.86 in 10.0 mi SW 20.7 mph 28.8 mph N/A   Clear
4:56 PM 75.0 °F - 21.9 °F 14% 29.87 in 10.0 mi WSW 19.6 mph - N/A   Clear
5:56 PM 70.0 °F - 24.1 °F 18% 29.88 in 10.0 mi WSW 16.1 mph - N/A   Clear
6:56 PM 66.9 °F - 28.9 °F 24% 29.89 in 10.0 mi WSW 16.1 mph - N/A   Clear
7:56 PM 64.0 °F - 30.0 °F 28% 29.91 in 10.0 mi WSW 11.5 mph - N/A   Clear
9:56 PM 57.9 °F - 24.1 °F 27% 29.94 in 10.0 mi WSW 6.9 mph - N/A   Clear
10:56 PM 55.0 °F - 21.9 °F 28% 29.96 in 10.0 mi West 4.6 mph - N/A   Clear
11:56 PM 54.0 °F - 23.0 °F 30% 29.96 in 10.0 mi West 6.9 mph - N/A   Clear